QPF
0.00 0.00 0.00 0.00 0.00 0.00 0.00 0.00 0.00 0.00 0.00 0.00 0.00 0.00 0.00 0.00 0.00 0.00 0.00 0.00 0.00 0.00 0.00 0.00 0.00 0.01 0.01 0.01 0.02 0.02 0.03 0.02 0.01 0.01 0.00 0.00 0.00 0.00 0.00 0.00 0.00 0.00 0.00
0.00 0.00 0.00 0.00 0.00 0.00 0.00 0.00 0.00 0.00 0.00 0.00 0.00 0.00 0.00 0.00 0.00 0.00 0.00 0.00 0.00 0.00 0.00 0.00 0.01 0.01 0.02 0.02 0.03 0.04 0.04 0.04 0.03 0.02 0.02 0.01 0.01 0.01 0.00 0.00 0.00 0.00 0.00
0.00 0.00 0.00 0.00 0.00 0.00 0.00 0.00 0.00 0.00 0.00 0.00 0.00 0.00 0.00 0.00 0.00 0.00 0.00 0.00 0.00 0.00 0.00 0.00 0.01 0.02 0.02 0.02 0.04 0.05 0.06 0.05 0.04 0.03 0.02 0.02 0.01 0.01 0.01 0.01 0.00 0.00 0.00
0.00 0.00 0.00 0.00 0.00 0.00 0.00 0.00 0.00 0.00 0.00 0.00 0.00 0.00 0.00 0.00 0.00 0.00 0.00 0.00 0.00 0.00 0.00 0.00 0.00 0.01 0.02 0.03 0.03 0.05 0.07 0.07 0.07 0.06 0.05 0.03 0.02 0.02 0.01 0.01 0.01 0.01 0.00
0.00 0.00 0.00 0.00 0.00 0.00 0.00 0.00 0.00 0.00 0.00 0.00 0.00 0.00 0.00 0.00 0.00 0.00 0.00 0.00 0.00 0.00 0.00 0.00 0.00 0.00 0.01 0.01 0.02 0.03 0.05 0.06 0.06 0.06 0.07 0.07 0.04 0.02 0.02 0.02 0.02 0.02 0.01
0.01 0.00 0.00 0.00 0.00 0.00 0.00 0.00 0.00 0.00 0.00 0.00 0.00 0.00 0.00 0.00 0.00 0.00 0.00 0.00 0.00 0.00 0.00 0.00 0.00 0.00 0.00 0.01 0.01 0.01 0.02 0.03 0.03 0.04 0.06 0.07 0.08 0.06 0.04 0.03 0.02 0.02 0.02
0.02 0.01 0.00 0.00 0.00 0.00 0.01 0.01 0.01 0.01 0.00 0.00 0.00 0.00 0.00 0.00 0.00 0.00 0.00 0.00 0.00 0.00 0.00 0.00 0.00 0.00 0.00 0.00 0.00 0.00 0.01 0.01 0.01 0.02 0.03 0.05 0.07 0.08 0.09 0.08 0.06 0.04 0.03
0.04 0.03 0.02 0.01 0.02 0.02 0.02 0.02 0.01 0.01 0.01 0.01 0.01 0.00 0.00 0.00 0.00 0.00 0.00 0.00 0.00 0.00 0.00 0.00 0.00 0.00 0.00 0.00 0.00 0.00 0.00 0.00 0.01 0.01 0.01 0.02 0.04 0.07 0.08 0.10 0.11 0.10 0.07
0.08 0.06 0.05 0.05 0.05 0.05 0.04 0.03 0.02 0.02 0.02 0.01 0.01 0.01 0.01 0.00 0.00 0.00 0.00 0.00 0.00 0.00 0.00 0.00 0.00 0.00 0.00 0.00 0.00 0.00 0.00 0.00 0.00 0.00 0.00 0.00 0.01 0.03 0.06 0.10 0.14 0.15 0.14
0.15 0.13 0.11 0.09 0.08 0.06 0.04 0.03 0.02 0.01 0.01 0.01 0.01 0.01 0.01 0.01 0.01 0.00 0.00 0.00 0.00 0.00 0.00 0.00 0.00 0.00 0.00 0.00 0.00 0.00 0.00 0.00 0.00 0.00 0.00 0.01 0.01 0.02 0.03 0.06 0.10 0.13 0.14
0.16 0.15 0.13 0.11 0.08 0.06 0.04 0.03 0.02 0.02 0.02 0.02 0.01 0.01 0.02 0.02 0.01 0.01 0.00 0.00 0.00 0.00 0.00 0.00 0.00 0.00 0.00 0.00 0.00 0.00 0.00 0.00 0.00 0.00 0.01 0.02 0.02 0.02 0.02 0.02 0.04 0.07 0.10
0.15 0.13 0.11 0.10 0.08 0.06 0.05 0.03 0.02 0.02 0.02 0.02 0.02 0.02 0.02 0.01 0.01 0.01 0.01 0.00 0.00 0.00 0.00 0.00 0.00 0.00 0.00 0.00 0.01 0.01 0.00 0.00 0.00 0.01 0.01 0.02 0.01 0.01 0.01 0.02 0.02 0.03 0.05
0.12 0.11 0.10 0.08 0.07 0.04 0.03 0.02 0.02 0.02 0.02 0.02 0.02 0.01 0.01 0.01 0.01 0.01 0.01 0.01 0.00 0.00 0.00 0.00 0.00 0.00 0.00 0.00 0.00 0.01 0.00 0.00 0.00 0.01 0.01 0.01 0.01 0.01 0.01 0.01 0.02 0.02 0.03
0.12 0.10 0.09 0.08 0.06 0.04 0.03 0.03 0.03 0.02 0.01 0.01 0.01 0.00 0.00 0.00 0.00 0.00 0.00 0.01 0.01 0.00 0.00 0.00 0.00 0.00 0.00 0.00 0.01 0.01 0.00 0.01 0.01 0.01 0.01 0.01 0.01 0.01 0.01 0.01 0.01 0.01 0.02
0.08 0.08 0.08 0.08 0.06 0.04 0.03 0.02 0.02 0.01 0.01 0.00 0.00 0.00 0.00 0.00 0.00 0.00 0.00 0.00 0.01 0.01 0.00 0.00 0.00 0.00 0.00 0.00 0.01 0.00 0.00 0.01 0.01 0.01 0.01 0.01 0.00 0.01 0.01 0.01 0.01 0.01 0.02
0.05 0.04 0.04 0.04 0.03 0.03 0.02 0.01 0.01 0.00 0.00 0.00 0.00 0.00 0.00 0.00 0.00 0.00 0.00 0.00 0.00 0.01 0.01 0.00 0.00 0.00 0.00 0.00 0.01 0.00 0.00 0.01 0.01 0.00 0.00 0.00 0.00 0.01 0.01 0.01 0.01 0.01 0.02
0.03 0.02 0.02 0.02 0.02 0.02 0.01 0.01 0.00 0.00 0.00 0.00 0.00 0.00 0.00 0.00 0.00 0.00 0.00 0.00 0.00 0.00 0.01 0.00 0.00 0.00 0.00 0.00 0.00 0.00 0.00 0.00 0.00 0.00 0.00 0.00 0.00 0.00 0.01 0.01 0.01 0.01 0.01
0.02 0.02 0.01 0.01 0.01 0.01 0.01 0.00 0.00 0.00 0.00 0.00 0.00 0.00 0.00 0.00 0.00 0.00 0.00 0.00 0.00 0.00 0.00 0.00 0.00 0.00 0.00 0.00 0.00 0.00 0.00 0.00 0.00 0.00 0.00 0.00 0.00 0.00 0.00 0.00 0.01 0.01 0.01
0.01 0.01 0.01 0.01 0.01 0.01 0.01 0.00 0.00 0.00 0.00 0.00 0.00 0.00 0.00 0.00 0.00 0.00 0.00 0.00 0.00 0.00 0.00 0.00 0.00 0.00 0.01 0.01 0.00 0.00 0.00 0.00 0.00 0.00 0.00 0.00 0.00 0.00 0.00 0.00 0.00 0.01 0.01
0.00 0.00 0.00 0.00 0.01 0.01 0.01 0.00 0.00 0.00 0.00 0.00 0.00 0.00 0.00 0.00 0.00 0.00 0.00 0.00 0.00 0.00 0.00 0.00 0.00 0.00 0.00 0.00 0.00 0.00 0.00 0.00 0.00 0.00 0.00 0.00 0.00 0.00 0.00 0.00 0.00 0.00 0.00
0.00 0.00 0.00 0.00 0.00 0.00 0.00 0.00 0.00 0.00 0.00 0.00 0.00 0.00 0.00 0.00 0.00 0.00 0.00 0.00 0.00 0.00 0.00 0.00 0.00 0.00 0.00 0.00 0.00 0.00 0.00 0.00 0.00 0.00 0.00 0.00 0.00 0.00 0.00 0.00 0.00 0.00 0.00
0.00 0.00 0.00 0.00 0.00 0.00 0.00 0.00 0.00 0.00 0.00 0.00 0.00 0.00 0.00 0.00 0.00 0.00 0.00 0.00 0.00 0.00 0.00 0.00 0.00 0.00 0.00 0.00 0.00 0.00 0.00 0.00 0.00 0.00 0.00 0.00 0.00 0.00 0.00 0.00 0.00 0.00 0.00
0.00 0.00 0.00 0.00 0.00 0.00 0.00 0.00 0.00 0.00 0.00 0.00 0.00 0.00 0.00 0.00 0.00 0.00 0.00 0.00 0.00 0.00 0.00 0.00 0.00 0.00 0.00 0.00 0.00 0.00 0.00 0.00 0.00 0.00 0.00 0.00 0.00 0.00 0.00 0.00 0.00 0.00 0.00
0.00 0.00 0.00 0.00 0.00 0.00 0.00 0.00 0.00 0.00 0.00 0.00 0.00 0.00 0.00 0.00 0.00 0.00 0.00 0.00 0.00 0.00 0.00 0.00 0.00 0.00 0.00 0.00 0.00 0.00 0.00 0.00 0.00 0.00 0.00 0.00 0.00 0.00 0.00 0.00 0.00 0.00 0.00
0.00 0.00 0.00 0.00 0.00 0.00 0.00 0.00 0.00 0.00 0.00 0.00 0.00 0.00 0.00 0.00 0.00 0.00 0.00 0.00 0.00 0.00 0.00 0.00 0.00 0.00 0.00 0.00 0.00 0.00 0.00 0.00 0.00 0.00 0.00 0.00 0.00 0.00 0.00 0.00 0.00 0.00 0.00
0.00 0.00 0.00 0.00 0.00 0.00 0.00 0.00 0.00 0.00 0.00 0.00 0.00 0.00 0.00 0.00 0.00 0.00 0.00 0.00 0.00 0.00 0.00 0.00 0.00 0.00 0.00 0.00 0.00 0.00 0.00 0.00 0.00 0.00 0.00 0.00 0.00 0.00 0.00 0.00 0.00 0.00 0.00
MSLP
1018.94 1019.13 1019.29 1019.43 1019.57 1019.72 1019.88 1020.04 1020.18 1020.29 1020.35 1020.36 1020.34 1020.30 1020.24 1020.19 1020.15 1020.11 1020.08 1020.05 1020.01 1019.97 1019.93 1019.91 1019.91 1019.95 1020.02 1020.11 1020.22 1020.34 1020.44 1020.53 1020.60 1020.65 1020.71 1020.77 1020.85 1020.93 1021.02 1021.09 1021.15 1021.17 1021.16
1018.60 1018.80 1018.97 1019.15 1019.34 1019.55 1019.76 1019.96 1020.12 1020.22 1020.27 1020.26 1020.20 1020.13 1020.05 1019.98 1019.92 1019.88 1019.84 1019.80 1019.74 1019.67 1019.61 1019.54 1019.51 1019.51 1019.55 1019.63 1019.74 1019.87 1020.00 1020.13 1020.25 1020.37 1020.49 1020.61 1020.74 1020.86 1020.99 1021.10 1021.19 1021.25 1021.28
1018.17 1018.36 1018.56 1018.79 1019.05 1019.32 1019.59 1019.84 1020.03 1020.14 1020.18 1020.15 1020.07 1019.97 1019.87 1019.78 1019.71 1019.65 1019.60 1019.54 1019.46 1019.36 1019.25 1019.15 1019.08 1019.04 1019.05 1019.11 1019.22 1019.36 1019.52 1019.69 1019.86 1020.03 1020.20 1020.37 1020.54 1020.70 1020.86 1021.00 1021.11 1021.21 1021.28
1017.68 1017.88 1018.11 1018.39 1018.71 1019.06 1019.39 1019.69 1019.91 1020.05 1020.09 1020.04 1019.95 1019.83 1019.71 1019.60 1019.52 1019.45 1019.38 1019.29 1019.19 1019.06 1018.92 1018.79 1018.67 1018.60 1018.59 1018.63 1018.73 1018.88 1019.07 1019.27 1019.47 1019.68 1019.88 1020.08 1020.27 1020.45 1020.62 1020.77 1020.90 1021.02 1021.13
1017.20 1017.39 1017.65 1017.98 1018.36 1018.77 1019.17 1019.52 1019.78 1019.93 1019.98 1019.94 1019.84 1019.71 1019.58 1019.46 1019.36 1019.28 1019.20 1019.10 1018.97 1018.82 1018.66 1018.50 1018.36 1018.26 1018.23 1018.27 1018.37 1018.52 1018.71 1018.92 1019.14 1019.36 1019.57 1019.77 1019.96 1020.13 1020.29 1020.44 1020.58 1020.71 1020.83
1016.74 1016.94 1017.22 1017.59 1018.02 1018.48 1018.93 1019.32 1019.61 1019.79 1019.86 1019.83 1019.73 1019.61 1019.48 1019.37 1019.27 1019.18 1019.08 1018.97 1018.84 1018.67 1018.50 1018.33 1018.18 1018.08 1018.05 1018.08 1018.17 1018.32 1018.50 1018.71 1018.92 1019.12 1019.31 1019.48 1019.64 1019.78 1019.91 1020.04 1020.17 1020.30 1020.44
1016.31 1016.52 1016.82 1017.22 1017.69 1018.19 1018.67 1019.09 1019.41 1019.62 1019.71 1019.71 1019.65 1019.54 1019.43 1019.33 1019.24 1019.15 1019.05 1018.94 1018.80 1018.64 1018.47 1018.30 1018.17 1018.08 1018.05 1018.09 1018.18 1018.31 1018.48 1018.65 1018.83 1018.98 1019.13 1019.25 1019.36 1019.45 1019.54 1019.64 1019.74 1019.86 1020.00
1015.92 1016.15 1016.47 1016.89 1017.38 1017.90 1018.40 1018.84 1019.19 1019.43 1019.56 1019.60 1019.57 1019.51 1019.43 1019.36 1019.28 1019.20 1019.11 1019.00 1018.87 1018.72 1018.57 1018.43 1018.32 1018.26 1018.25 1018.29 1018.38 1018.50 1018.63 1018.76 1018.88 1018.98 1019.06 1019.12 1019.16 1019.20 1019.24 1019.29 1019.36 1019.45 1019.58
1015.57 1015.82 1016.17 1016.61 1017.11 1017.63 1018.14 1018.59 1018.96 1019.23 1019.40 1019.49 1019.52 1019.52 1019.49 1019.45 1019.40 1019.34 1019.26 1019.15 1019.03 1018.90 1018.77 1018.67 1018.60 1018.57 1018.59 1018.65 1018.73 1018.83 1018.93 1019.01 1019.07 1019.10 1019.11 1019.10 1019.08 1019.06 1019.05 1019.05 1019.08 1019.14 1019.24
1015.27 1015.56 1015.94 1016.39 1016.89 1017.41 1017.91 1018.36 1018.74 1019.03 1019.25 1019.40 1019.50 1019.56 1019.59 1019.59 1019.57 1019.53 1019.45 1019.36 1019.25 1019.14 1019.04 1018.98 1018.94 1018.96 1019.01 1019.08 1019.17 1019.25 1019.31 1019.34 1019.34 1019.31 1019.26 1019.19 1019.12 1019.05 1018.99 1018.96 1018.94 1018.96 1019.01
1015.04 1015.39 1015.80 1016.26 1016.75 1017.25 1017.73 1018.17 1018.55 1018.88 1019.14 1019.35 1019.51 1019.63 1019.71 1019.76 1019.77 1019.74 1019.67 1019.59 1019.49 1019.39 1019.32 1019.29 1019.30 1019.35 1019.43 1019.52 1019.61 1019.68 1019.72 1019.71 1019.66 1019.58 1019.48 1019.38 1019.27 1019.17 1019.08 1019.00 1018.94 1018.91 1018.90
1014.92 1015.32 1015.76 1016.23 1016.71 1017.19 1017.64 1018.05 1018.43 1018.76 1019.06 1019.32 1019.54 1019.71 1019.85 1019.93 1019.96 1019.94 1019.88 1019.79 1019.69 1019.61 1019.56 1019.56 1019.60 1019.69 1019.80 1019.91 1020.01 1020.07 1020.09 1020.05 1019.98 1019.87 1019.75 1019.62 1019.49 1019.38 1019.27 1019.16 1019.06 1018.97 1018.89
1014.92 1015.37 1015.84 1016.32 1016.78 1017.22 1017.63 1018.02 1018.38 1018.71 1019.03 1019.32 1019.58 1019.80 1019.97 1020.08 1020.13 1020.11 1020.05 1019.95 1019.85 1019.78 1019.74 1019.76 1019.83 1019.95 1020.08 1020.21 1020.32 1020.39 1020.40 1020.36 1020.27 1020.16 1020.03 1019.90 1019.77 1019.65 1019.54 1019.41 1019.27 1019.12 1018.95
1015.04 1015.54 1016.03 1016.50 1016.94 1017.34 1017.71 1018.06 1018.39 1018.71 1019.03 1019.34 1019.63 1019.88 1020.07 1020.20 1020.25 1020.24 1020.16 1020.06 1019.96 1019.89 1019.86 1019.90 1019.99 1020.13 1020.29 1020.44 1020.56 1020.63 1020.65 1020.61 1020.53 1020.43 1020.31 1020.19 1020.08 1019.97 1019.85 1019.71 1019.53 1019.32 1019.07
1015.25 1015.79 1016.30 1016.76 1017.17 1017.53 1017.85 1018.15 1018.45 1018.75 1019.06 1019.37 1019.67 1019.94 1020.15 1020.29 1020.34 1020.32 1020.24 1020.13 1020.03 1019.96 1019.94 1019.99 1020.10 1020.26 1020.44 1020.61 1020.75 1020.84 1020.87 1020.84 1020.78 1020.69 1020.59 1020.50 1020.41 1020.31 1020.19 1020.04 1019.83 1019.56 1019.23
1015.52 1016.08 1016.59 1017.04 1017.41 1017.74 1018.01 1018.27 1018.53 1018.81 1019.11 1019.42 1019.72 1020.00 1020.21 1020.35 1020.41 1020.38 1020.30 1020.19 1020.09 1020.03 1020.02 1020.09 1020.21 1020.39 1020.59 1020.78 1020.93 1021.03 1021.08 1021.08 1021.03 1020.97 1020.89 1020.82 1020.74 1020.66 1020.54 1020.38 1020.14 1019.84 1019.45
1015.80 1016.36 1016.86 1017.29 1017.64 1017.92 1018.16 1018.39 1018.62 1018.88 1019.17 1019.48 1019.78 1020.05 1020.27 1020.41 1020.47 1020.45 1020.38 1020.27 1020.18 1020.13 1020.13 1020.21 1020.36 1020.55 1020.76 1020.97 1021.14 1021.26 1021.33 1021.35 1021.32 1021.28 1021.22 1021.16 1021.10 1021.02 1020.90 1020.73 1020.48 1020.15 1019.73
1016.03 1016.58 1017.06 1017.47 1017.80 1018.06 1018.28 1018.48 1018.70 1018.95 1019.23 1019.54 1019.84 1020.12 1020.34 1020.49 1020.56 1020.55 1020.48 1020.39 1020.32 1020.28 1020.30 1020.40 1020.56 1020.77 1020.99 1021.21 1021.40 1021.54 1021.62 1021.66 1021.65 1021.62 1021.58 1021.53 1021.47 1021.39 1021.27 1021.09 1020.84 1020.50 1020.07
1016.18 1016.72 1017.18 1017.57 1017.88 1018.12 1018.33 1018.54 1018.75 1019.01 1019.29 1019.61 1019.92 1020.20 1020.43 1020.59 1020.67 1020.68 1020.63 1020.56 1020.50 1020.49 1020.53 1020.64 1020.81 1021.03 1021.27 1021.50 1021.70 1021.85 1021.95 1021.99 1022.00 1021.98 1021.94 1021.90 1021.83 1021.75 1021.63 1021.45 1021.20 1020.87 1020.47
1016.27 1016.77 1017.21 1017.58 1017.88 1018.12 1018.33 1018.54 1018.77 1019.04 1019.34 1019.66 1019.99 1020.29 1020.53 1020.71 1020.80 1020.83 1020.81 1020.76 1020.73 1020.73 1020.79 1020.91 1021.09 1021.32 1021.56 1021.79 1022.00 1022.16 1022.27 1022.33 1022.35 1022.33 1022.30 1022.25 1022.18 1022.09 1021.96 1021.79 1021.55 1021.25 1020.89
1016.28 1016.76 1017.18 1017.53 1017.81 1018.06 1018.28 1018.50 1018.75 1019.03 1019.35 1019.70 1020.04 1020.35 1020.61 1020.81 1020.93 1020.98 1020.98 1020.96 1020.95 1020.97 1021.04 1021.17 1021.36 1021.58 1021.82 1022.05 1022.26 1022.43 1022.55 1022.62 1022.64 1022.63 1022.60 1022.55 1022.47 1022.38 1022.25 1022.08 1021.87 1021.60 1021.29
1016.25 1016.70 1017.09 1017.43 1017.71 1017.95 1018.18 1018.41 1018.68 1018.98 1019.32 1019.68 1020.04 1020.37 1020.65 1020.86 1021.01 1021.09 1021.12 1021.12 1021.13 1021.17 1021.25 1021.38 1021.57 1021.78 1022.02 1022.25 1022.45 1022.62 1022.74 1022.82 1022.86 1022.86 1022.83 1022.78 1022.70 1022.61 1022.48 1022.32 1022.13 1021.90 1021.65
1016.18 1016.60 1016.98 1017.30 1017.57 1017.81 1018.04 1018.28 1018.56 1018.87 1019.22 1019.59 1019.96 1020.31 1020.61 1020.85 1021.02 1021.13 1021.19 1021.22 1021.25 1021.30 1021.39 1021.52 1021.70 1021.90 1022.12 1022.34 1022.54 1022.71 1022.84 1022.93 1022.98 1022.99 1022.97 1022.93 1022.86 1022.77 1022.65 1022.50 1022.33 1022.14 1021.94
1016.07 1016.48 1016.84 1017.14 1017.40 1017.63 1017.86 1018.10 1018.38 1018.69 1019.05 1019.42 1019.80 1020.16 1020.48 1020.74 1020.94 1021.08 1021.17 1021.23 1021.29 1021.35 1021.45 1021.58 1021.74 1021.93 1022.14 1022.34 1022.54 1022.70 1022.84 1022.94 1023.01 1023.04 1023.04 1023.01 1022.95 1022.87 1022.77 1022.64 1022.49 1022.33 1022.16
1015.93 1016.32 1016.66 1016.95 1017.20 1017.42 1017.63 1017.87 1018.14 1018.44 1018.79 1019.17 1019.55 1019.92 1020.25 1020.54 1020.77 1020.94 1021.06 1021.16 1021.24 1021.32 1021.43 1021.55 1021.71 1021.89 1022.08 1022.27 1022.46 1022.63 1022.77 1022.89 1022.97 1023.03 1023.05 1023.05 1023.01 1022.95 1022.87 1022.76 1022.63 1022.49 1022.35
1015.71 1016.10 1016.43 1016.71 1016.94 1017.15 1017.36 1017.58 1017.83 1018.13 1018.47 1018.84 1019.22 1019.60 1019.95 1020.26 1020.52 1020.72 1020.89 1021.02 1021.13 1021.23 1021.35 1021.48 1021.63 1021.80 1021.98 1022.17 1022.35 1022.52 1022.68 1022.81 1022.92 1023.01 1023.06 1023.08 1023.08 1023.04 1022.97 1022.88 1022.77 1022.65 1022.53
Thickness
5683 5682 5682 5682 5682 5682 5682 5682 5681 5681 5681 5681 5681 5681 5680 5680 5679 5679 5679 5678 5678 5677 5675 5674 5672 5670 5667 5664 5661 5658 5655 5651 5648 5644 5641 5637 5634 5630 5627 5624 5621 5618 5615
5679 5678 5678 5678 5678 5678 5677 5677 5677 5676 5676 5676 5676 5676 5676 5676 5675 5675 5675 5674 5674 5673 5672 5671 5669 5667 5664 5662 5658 5655 5651 5648 5644 5641 5637 5634 5630 5626 5623 5619 5616 5613 5610
5675 5675 5674 5674 5674 5674 5673 5672 5672 5672 5671 5671 5671 5672 5671 5671 5671 5671 5671 5671 5670 5669 5668 5667 5665 5662 5660 5657 5654 5651 5647 5644 5640 5637 5633 5630 5626 5622 5619 5615 5611 5608 5605
5672 5671 5670 5670 5670 5670 5669 5668 5667 5666 5666 5666 5666 5666 5667 5667 5667 5667 5666 5666 5666 5665 5663 5662 5660 5657 5655 5652 5649 5646 5642 5639 5635 5632 5629 5626 5622 5618 5615 5611 5607 5603 5600
5669 5668 5668 5667 5666 5665 5664 5663 5662 5661 5661 5660 5661 5661 5661 5662 5663 5662 5662 5661 5660 5659 5658 5656 5654 5651 5649 5646 5643 5640 5636 5633 5630 5627 5624 5621 5618 5614 5611 5607 5603 5599 5596
5665 5664 5664 5663 5662 5660 5659 5658 5657 5656 5655 5655 5655 5655 5656 5657 5657 5656 5655 5655 5654 5652 5651 5649 5646 5644 5641 5638 5636 5632 5629 5626 5623 5620 5618 5615 5612 5610 5606 5603 5599 5596 5592
5661 5660 5659 5658 5657 5655 5654 5653 5651 5649 5648 5647 5647 5647 5649 5649 5649 5648 5647 5646 5645 5644 5642 5640 5638 5635 5631 5629 5626 5623 5621 5618 5615 5613 5610 5608 5606 5604 5601 5598 5595 5592 5588
5656 5656 5655 5653 5651 5650 5648 5646 5644 5642 5640 5639 5638 5637 5636 5638 5640 5639 5638 5636 5634 5633 5632 5629 5627 5624 5621 5618 5616 5613 5611 5608 5607 5605 5603 5601 5599 5597 5596 5593 5591 5588 5584
5651 5651 5649 5648 5646 5644 5641 5639 5637 5635 5632 5629 5629 5628 5625 5625 5627 5629 5627 5624 5623 5621 5619 5617 5614 5612 5610 5607 5605 5603 5600 5598 5597 5596 5594 5593 5592 5590 5589 5587 5585 5583 5580
5644 5644 5643 5641 5639 5637 5634 5632 5630 5628 5625 5622 5620 5619 5618 5617 5615 5616 5617 5613 5611 5609 5607 5605 5603 5600 5598 5597 5594 5593 5591 5589 5587 5586 5585 5584 5583 5582 5581 5580 5578 5577 5575
5637 5636 5635 5632 5630 5628 5626 5624 5621 5620 5618 5615 5612 5610 5608 5606 5605 5604 5605 5603 5600 5597 5595 5593 5591 5589 5587 5585 5583 5581 5580 5578 5577 5576 5576 5575 5574 5573 5572 5571 5570 5569 5569
5628 5627 5625 5624 5622 5620 5617 5615 5613 5610 5608 5606 5604 5602 5599 5598 5596 5594 5595 5594 5591 5587 5583 5581 5579 5576 5574 5573 5571 5569 5568 5567 5566 5565 5565 5564 5563 5562 5562 5562 5561 5561 5561
5619 5618 5617 5615 5613 5611 5608 5606 5603 5601 5598 5596 5594 5592 5590 5588 5586 5584 5584 5584 5582 5578 5573 5569 5566 5564 5562 5560 5558 5557 5555 5554 5553 5553 5553 5552 5551 5551 5551 5552 5552 5552 5553
5612 5610 5608 5605 5603 5601 5599 5596 5593 5590 5588 5586 5584 5581 5579 5577 5574 5572 5572 5571 5571 5569 5564 5559 5554 5551 5549 5547 5545 5544 5542 5542 5540 5540 5539 5539 5539 5540 5540 5542 5543 5544 5544
5604 5600 5598 5595 5593 5591 5588 5586 5583 5580 5577 5575 5572 5570 5568 5565 5563 5560 5559 5558 5557 5559 5558 5549 5542 5538 5536 5534 5532 5530 5529 5528 5527 5526 5526 5527 5527 5528 5529 5531 5533 5535 5536
5595 5591 5588 5585 5582 5579 5577 5574 5572 5569 5566 5563 5561 5559 5556 5553 5551 5548 5546 5545 5543 5543 5545 5538 5531 5527 5523 5521 5519 5517 5516 5516 5515 5514 5514 5514 5515 5516 5518 5520 5522 5524 5526
5584 5581 5578 5574 5571 5568 5565 5563 5560 5557 5554 5551 5549 5547 5544 5541 5538 5536 5533 5532 5530 5529 5530 5525 5519 5515 5512 5509 5507 5505 5504 5503 5503 5502 5502 5502 5504 5504 5506 5508 5510 5513 5515
5573 5570 5567 5564 5560 5557 5554 5552 5549 5546 5543 5540 5538 5535 5532 5529 5526 5523 5520 5518 5517 5515 5515 5514 5507 5503 5500 5497 5495 5493 5492 5491 5491 5491 5491 5491 5492 5493 5495 5497 5498 5501 5504
5561 5558 5555 5552 5549 5546 5543 5541 5538 5535 5532 5529 5527 5524 5521 5518 5515 5511 5508 5506 5504 5503 5502 5501 5497 5492 5488 5486 5483 5482 5480 5480 5479 5479 5480 5480 5481 5482 5484 5486 5487 5489 5492
5549 5546 5543 5541 5538 5535 5532 5529 5526 5523 5520 5518 5515 5512 5510 5507 5503 5500 5497 5494 5492 5491 5490 5488 5486 5481 5477 5474 5473 5470 5469 5468 5467 5468 5469 5470 5470 5472 5473 5475 5477 5478 5481
5537 5534 5532 5529 5526 5523 5521 5519 5516 5513 5509 5506 5503 5501 5498 5496 5493 5489 5486 5483 5480 5478 5477 5476 5474 5471 5467 5464 5462 5460 5459 5457 5457 5457 5459 5460 5461 5462 5463 5464 5466 5467 5469
5524 5522 5520 5518 5515 5513 5511 5509 5506 5502 5499 5495 5492 5489 5487 5484 5482 5479 5476 5473 5470 5468 5466 5464 5462 5461 5457 5455 5452 5451 5449 5448 5448 5447 5448 5449 5450 5451 5452 5454 5455 5457 5459
5513 5511 5509 5507 5505 5503 5502 5500 5496 5492 5488 5485 5481 5478 5475 5473 5470 5466 5464 5461 5460 5459 5457 5454 5452 5450 5448 5446 5443 5441 5440 5438 5438 5438 5438 5440 5440 5441 5442 5443 5445 5447 5448
5502 5500 5498 5497 5494 5493 5492 5490 5486 5481 5477 5474 5471 5468 5465 5461 5459 5455 5452 5449 5447 5446 5445 5444 5443 5441 5440 5438 5436 5434 5432 5430 5429 5429 5429 5430 5430 5431 5433 5434 5435 5437 5437
5491 5489 5488 5486 5484 5483 5482 5480 5476 5470 5466 5463 5460 5458 5455 5452 5450 5447 5443 5440 5437 5436 5435 5435 5433 5432 5431 5429 5427 5425 5423 5421 5421 5421 5420 5420 5421 5421 5423 5424 5425 5425 5426
5481 5479 5477 5476 5474 5473 5472 5470 5467 5460 5456 5453 5450 5448 5447 5444 5442 5440 5435 5431 5428 5427 5426 5425 5423 5422 5421 5420 5419 5417 5416 5412 5412 5412 5412 5411 5411 5411 5412 5414 5414 5415 5415